[[{"header":{"parameterUnit":"m.s-1","parameterCategory":1,"la1":30.2991,"la2":30.254,"lo1":-89.0895,"lo2":-89.0444,"dy":0.0017,"dx":0.0017,"nx":28,"ny":28,"refTime":"2025-12-31T09:00:00:Z","depth":0,"parameterNumber":2,"parameterNumberName":"U-component_of_WINDS"},"data":[0,0,0,0,0,0,0,0,0,0,0,0,0,0,0,0,0,0,0,0,0,0,0,0,0,0,0,0,0,0,0,0,0,0,0,0,0,0,0,0,0,0,0,0,0,0,0,0,0,0,0,0,0,0,0,0,0,0,3.5078,3.5079,0,3.5147,3.5148,3.5149,3.5112,3.511,3.5108,3.5106,3.5179,3.5183,3.5187,0,0,0,0,0,0,0,0,0,0,0,0,0,3.4915,3.4918,3.5078,3.5079,3.5079,3.5147,3.5148,3.5149,3.5112,3.511,3.5107,3.5105,3.5178,3.5182,3.5187,0,0,0,0,0,0,0,0,0,0,0,0,0,3.4985,3.4919,3.5078,3.5069,3.5069,3.5147,3.5148,3.5149,3.5112,3.511,3.5107,3.5104,3.5177,3.5182,3.5187,3.5278,0,0,3.5204,3.5207,0,0,0,0,0,0,0,0,3.4981,3.4991,3.5069,3.507,3.507,3.5118,3.5117,3.5193,3.5113,3.5096,3.5106,3.5103,3.5161,3.5168,3.5187,3.5282,3.5285,3.5205,3.5208,3.5211,3.5212,0,0,0,0,0,0,0,3.4976,3.4988,3.5105,3.5071,3.5071,3.5062,3.5069,3.5131,3.5144,3.5097,3.5095,3.5103,3.5161,3.5182,3.5189,3.5286,3.5205,3.521,3.5213,3.5215,3.5458,3.5461,0,0,0,0,0,0,3.4972,3.4984,3.5103,3.5107,3.5018,3.5068,3.5075,3.5105,3.5143,3.5146,3.5106,3.5101,3.5174,3.5182,3.5191,3.5299,3.5211,3.5216,3.5219,3.5455,3.5458,3.5462,0,0,0,0,0,0,3.4968,3.4983,3.51,3.5045,3.5059,3.5073,3.5107,3.5108,3.5129,3.5149,3.5151,3.5125,3.5172,3.5183,3.5257,3.5301,3.5218,3.5223,3.5451,3.5456,3.546,3.5517,0,0,0,0,0,0,3.4964,3.4982,3.5016,3.5046,3.5062,3.5164,3.511,3.5112,3.5139,3.5134,3.5168,3.5171,3.5171,3.5248,3.5262,3.5307,3.5228,3.5447,3.5453,3.5459,3.5511,3.5523,3.5533,0,0,0,0,0,3.4958,3.503,3.5018,3.5032,3.5105,3.5167,3.5176,3.5174,3.5142,3.5177,3.519,3.517,3.5294,3.5256,3.5271,3.5319,3.5444,3.5451,3.5458,3.5506,3.552,3.5533,0,0,0,0,0,0,3.5005,3.5034,3.5021,3.5104,3.5133,3.516,3.5204,3.5189,3.5229,3.5223,3.5219,3.5227,3.5303,3.5318,3.5276,3.5409,3.5364,3.5375,3.5396,3.5409,3.542,3.5415,3.5232,0,0,0,0,0,3.5025,3.5072,3.5095,3.5166,3.5181,3.519,3.5217,3.5213,3.5243,3.5255,3.5274,3.5304,3.535,3.5381,3.5424,3.5513,3.552,3.5553,3.5564,3.5573,3.5582,3.563,3.5645,3.5485,3.5485,3.5485,0,0,3.5067,3.5088,3.5119,3.5176,3.5198,3.5247,3.5201,3.5255,3.5292,3.5264,3.5334,3.5348,3.5383,3.5464,3.5501,3.5479,3.5628,3.5582,3.5589,3.5593,3.5638,3.5653,3.5667,3.549,3.5489,3.5488,0,0,3.5169,3.519,3.5251,3.5274,3.5308,3.5313,3.5328,3.5358,3.5366,3.5436,3.5416,3.546,3.5539,3.5564,3.5587,3.5698,3.568,3.5712,3.5769,3.5816,3.5828,3.5839,3.5878,3.5892,3.5721,3.5721,3.5721,0,3.5217,3.5289,3.5285,3.534,3.5366,3.5342,3.5405,3.5427,3.5474,3.5493,3.5468,3.5566,3.5588,3.5674,3.5701,3.5721,3.5738,3.5708,3.5827,3.5838,3.5848,3.5885,3.59,3.5725,3.5724,3.5724,3.5723,0,3.5346,3.5397,3.5443,3.5487,3.5518,3.5577,3.5582,3.5614,3.5607,3.5615,3.5687,3.5711,3.5759,3.578,3.5774,3.5865,3.5851,3.5827,3.5782,3.5867,3.5902,3.5916,3.573,3.5728,3.5727,3.5726,0,0,3.5479,3.552,3.5537,3.5557,3.5592,3.5632,3.5689,3.5735,3.5763,3.5796,3.5844,3.5911,3.5889,3.5915,3.5912,3.5953,3.6038,3.5923,3.5924,3.5943,3.614,3.6157,3.6174,3.6027,3.6029,3.6032,3.6137,0,3.5583,3.5683,3.568,3.5773,3.582,3.5798,3.5848,3.5876,3.5885,3.5926,3.5937,3.5984,3.5951,3.5967,3.6006,3.6019,3.6077,3.6012,3.6072,3.6074,3.6063,3.6192,3.6211,3.6309,3.615,3.6153,3.6154,0,3.5717,3.5753,3.5851,3.5878,3.5898,3.5943,3.5985,3.6024,3.6055,3.6059,3.6088,3.6078,3.6137,3.6091,3.6172,3.6127,3.6152,3.6162,3.6165,3.6171,3.6119,3.62,3.634,3.6355,3.6176,3.6174,3.6173,0,3.5803,3.5877,3.5944,3.5962,3.5997,3.6029,3.6045,3.6072,3.61,3.6137,3.6155,3.6198,3.6222,3.6256,3.6258,3.6224,3.6339,3.6294,3.6344,3.6344,3.6369,3.6368,3.6515,3.6386,3.6386,3.6386,3.6385,0,3.5918,3.5979,3.5984,3.6025,3.6092,3.6089,3.6156,3.6169,3.6194,3.6237,3.6222,3.6264,3.6264,3.6307,3.6309,3.6375,3.6386,3.6391,3.6391,3.6392,3.6392,3.6408,3.6401,3.6389,3.6389,3.6388,3.6387,0,3.6026,3.6032,3.6104,3.6131,3.6139,3.6187,3.621,3.625,3.6257,3.6313,3.6326,3.6338,3.6388,3.6393,3.6451,3.6452,3.6532,3.6525,3.6522,3.652,3.657,3.6565,3.6732,3.6754,3.6612,3.6613,3.6614,0,3.6099,3.6145,3.6176,3.6204,3.6222,3.6267,3.6295,3.6294,3.6323,3.6361,3.6397,3.6444,3.6482,3.6562,3.6576,3.662,3.6614,3.6669,3.662,3.662,3.6614,3.6611,3.6615,3.6679,3.668,3.6682,3.6683,0,3.6228,3.6228,3.6269,3.631,3.6344,3.6376,3.6407,3.6431,3.6434,3.6468,3.6518,3.6547,3.6605,3.6653,3.6696,3.6713,3.6699,3.6698,3.6712,3.6713,3.6709,3.6711,3.6547,3.6694,3.6693,3.6692,3.6692,3.6691,3.632,3.636,3.6388,3.6433,3.6456,3.6485,3.6523,3.6535,3.6576,3.6623,3.662,3.6675,3.6704,3.6761,3.6781,3.6824,3.6805,3.6826,3.6831,3.6836,3.684,3.6703,3.6832,3.6832,3.6831,3.6831,3.6831,0,3.6448,3.6464,3.6506,3.6549,3.6585,3.6567,3.66,3.6632,3.668,3.6708,3.6745,3.6802,3.6848,3.6866,3.6911,3.6942,3.6936,3.6954,3.6951,3.6955,3.6855,3.6838,3.6957,3.6957,3.6957,3.6957,3.6957,3.6957,3.6518,3.6584,3.6587,3.6664,3.668,3.6733,3.6754,3.678,3.6802,3.6867,3.6904,3.6915,3.6939,3.6985,3.7027,3.7031,3.7048,3.7068,3.7069,3.6975,3.6962,3.695,3.6934,3.7072,3.7072,3.7166,3.7167,3.7167]},{"header":{"parameterUnit":"m.s-1","parameterCategory":1,"la1":30.2991,"la2":30.254,"lo1":-89.0895,"lo2":-89.0444,"dy":0.0017,"dx":0.0017,"nx":28,"ny":28,"refTime":"2025-12-31T09:00:00:Z","depth":0,"parameterNumber":3,"parameterNumberName":"V-component_of_WINDS"},"data":[0,0,0,0,0,0,0,0,0,0,0,0,0,0,0,0,0,0,0,0,0,0,0,0,0,0,0,0,0,0,0,0,0,0,0,0,0,0,0,0,0,0,0,0,0,0,0,0,0,0,0,0,0,0,0,0,0,0,1.6342,1.6341,0,1.6317,1.6317,1.6317,1.6306,1.6306,1.6306,1.6306,1.6279,1.6279,1.6278,0,0,0,0,0,0,0,0,0,0,0,0,0,1.6375,1.6375,1.6342,1.6341,1.6341,1.6318,1.6317,1.6317,1.6306,1.6306,1.6306,1.6306,1.628,1.6279,1.6278,0,0,0,0,0,0,0,0,0,0,0,0,0,1.6357,1.6374,1.6342,1.6333,1.6331,1.6318,1.6317,1.6317,1.6306,1.6306,1.6306,1.6306,1.628,1.6279,1.6278,1.6271,0,0,1.6275,1.6274,0,0,0,0,0,0,0,0,1.6358,1.6356,1.6334,1.6333,1.6332,1.6315,1.6319,1.6301,1.6305,1.6315,1.6306,1.6306,1.6291,1.6289,1.6284,1.627,1.6268,1.6274,1.6274,1.6273,1.6273,0,0,0,0,0,0,0,1.6359,1.6356,1.6332,1.6334,1.6332,1.6329,1.6326,1.6316,1.6303,1.6314,1.6314,1.6311,1.629,1.6285,1.6284,1.6268,1.6275,1.6274,1.6273,1.6272,1.6243,1.6243,0,0,0,0,0,0,1.6362,1.6358,1.6333,1.6331,1.6345,1.6328,1.6325,1.632,1.6303,1.6301,1.6311,1.6311,1.6287,1.6285,1.6283,1.6272,1.6273,1.6272,1.6272,1.6244,1.6243,1.6243,0,0,0,0,0,0,1.6363,1.636,1.6334,1.6344,1.6341,1.6328,1.6322,1.632,1.6315,1.6301,1.6298,1.6308,1.6287,1.6284,1.6273,1.6271,1.6272,1.6271,1.6244,1.6244,1.6243,1.6251,0,0,0,0,0,0,1.6364,1.636,1.6358,1.6344,1.634,1.6326,1.6322,1.6319,1.6313,1.6312,1.6298,1.6295,1.6287,1.6275,1.6272,1.6269,1.627,1.6244,1.6244,1.6243,1.6251,1.6251,1.6251,0,0,0,0,0,1.6365,1.6362,1.6358,1.6355,1.6337,1.6326,1.6323,1.6314,1.6313,1.631,1.6301,1.6296,1.6272,1.6274,1.6271,1.6268,1.6244,1.6244,1.6243,1.6251,1.6251,1.6251,0,0,0,0,0,0,1.6376,1.636,1.6356,1.6348,1.6338,1.6324,1.632,1.6315,1.6305,1.6305,1.6293,1.629,1.628,1.6273,1.6276,1.6258,1.6257,1.6256,1.6264,1.6264,1.6264,1.6266,1.6269,0,0,0,0,0,1.6377,1.637,1.6356,1.635,1.6345,1.6333,1.6328,1.6322,1.6311,1.6307,1.6297,1.6286,1.6276,1.627,1.626,1.625,1.6245,1.6245,1.6246,1.6246,1.6245,1.6237,1.6237,1.6242,1.6242,1.6242,0,0,1.638,1.637,1.6366,1.6352,1.6343,1.6335,1.633,1.6322,1.6315,1.6306,1.6294,1.6286,1.6274,1.6263,1.6257,1.6256,1.6242,1.6245,1.6246,1.6245,1.6237,1.6236,1.6236,1.6242,1.6242,1.6242,0,0,1.638,1.6373,1.6366,1.6358,1.6346,1.6337,1.6336,1.6322,1.6316,1.6305,1.6297,1.6288,1.6272,1.6262,1.6255,1.625,1.6244,1.6247,1.6248,1.624,1.6239,1.6239,1.6236,1.6235,1.6246,1.6246,1.6246,0,1.6385,1.6373,1.6364,1.6355,1.6348,1.6339,1.6332,1.6324,1.6309,1.6303,1.6303,1.628,1.6271,1.6256,1.6255,1.625,1.6247,1.6248,1.624,1.624,1.6239,1.6236,1.6235,1.6246,1.6246,1.6246,1.6246,0,1.6379,1.637,1.6366,1.6352,1.6344,1.6336,1.6325,1.6318,1.6312,1.6303,1.6291,1.6279,1.6266,1.6262,1.6256,1.6246,1.6246,1.6243,1.6241,1.6239,1.6236,1.6234,1.6247,1.6247,1.6247,1.6247,0,0,1.6386,1.6365,1.6364,1.6356,1.6341,1.6334,1.6325,1.6312,1.6306,1.6295,1.6286,1.6271,1.6267,1.6259,1.6252,1.6246,1.624,1.6243,1.6242,1.6242,1.6226,1.6228,1.6227,1.6236,1.6236,1.6236,1.6227,0,1.6384,1.6368,1.6358,1.6346,1.6336,1.6327,1.6318,1.6307,1.6299,1.6289,1.6279,1.6268,1.6265,1.626,1.6253,1.6242,1.6236,1.6243,1.6226,1.6226,1.6229,1.6225,1.6227,1.622,1.6225,1.6225,1.6225,0,1.6379,1.6368,1.6355,1.6339,1.6335,1.6328,1.6314,1.6305,1.6292,1.6286,1.6276,1.6268,1.6256,1.6256,1.6238,1.6243,1.6235,1.6228,1.6228,1.6225,1.6225,1.6222,1.6217,1.6216,1.6223,1.6223,1.6223,0,1.6384,1.6367,1.6356,1.635,1.6331,1.6326,1.6318,1.6305,1.6297,1.6284,1.6279,1.6265,1.6257,1.6246,1.6234,1.6235,1.6217,1.6216,1.6211,1.6211,1.6207,1.6208,1.6201,1.6204,1.6204,1.6204,1.6204,0,1.6382,1.6374,1.6358,1.6351,1.6341,1.6329,1.6319,1.631,1.6298,1.6288,1.6279,1.6269,1.6255,1.6243,1.6233,1.6219,1.6216,1.621,1.6207,1.621,1.6211,1.6205,1.6205,1.6204,1.6204,1.6204,1.6204,0,1.6387,1.6375,1.6363,1.6346,1.6341,1.6335,1.6319,1.6312,1.6302,1.629,1.6286,1.6271,1.6256,1.6243,1.6224,1.6218,1.6203,1.62,1.6208,1.6206,1.6201,1.6201,1.6189,1.6186,1.6192,1.6192,1.6192,0,1.6386,1.6379,1.6362,1.6355,1.6347,1.6336,1.6327,1.6315,1.6306,1.6289,1.6283,1.6268,1.6256,1.6233,1.6219,1.6204,1.62,1.6197,1.6198,1.62,1.6198,1.6198,1.6197,1.6197,1.6197,1.6197,1.6197,0,1.6385,1.638,1.6369,1.6355,1.6345,1.6334,1.6322,1.6316,1.6301,1.6292,1.6277,1.6267,1.6247,1.6232,1.6215,1.6205,1.6197,1.6196,1.6194,1.6197,1.6201,1.6197,1.6207,1.6197,1.6197,1.6197,1.6197,1.6197,1.6386,1.6379,1.6365,1.6353,1.6342,1.6331,1.6322,1.6311,1.6299,1.6282,1.6275,1.626,1.6244,1.622,1.621,1.6197,1.6195,1.6193,1.6192,1.6191,1.6191,1.6203,1.6194,1.6194,1.6194,1.6194,1.6194,0,1.6384,1.6375,1.6363,1.6346,1.6336,1.633,1.6316,1.6308,1.6294,1.6281,1.6268,1.625,1.6234,1.6219,1.6202,1.6194,1.619,1.619,1.619,1.6187,1.6194,1.6197,1.6193,1.6193,1.6193,1.6193,1.6193,1.6193,1.6382,1.6369,1.6362,1.6343,1.6333,1.6318,1.631,1.6299,1.6288,1.6268,1.6255,1.6245,1.623,1.6212,1.6196,1.6192,1.6186,1.6186,1.6181,1.6187,1.6187,1.6187,1.619,1.6185,1.6185,1.6175,1.6175,1.6175]}]]